Time,TemperatureF,DewpointF,PressureIn,WindDirection,WindDirectionDegrees,WindSpeedMPH,WindSpeedGustMPH,Humidity,HourlyPrecipIn,Conditions,Clouds,dailyrainin,SoftwareType,DateUTC
2013-03-15 00:03:00,31.0,5.0,29.96,NNW,348,7.0,11.0,33,0.00,,,0.00,,2013-03-15 04:03:00,
2013-03-15 00:13:00,31.0,5.0,29.96,NNW,348,7.0,11.0,33,0.00,,,0.00,,2013-03-15 04:13:00,
2013-03-15 00:23:00,31.0,6.0,29.96,NW,307,4.0,9.0,34,0.00,,,0.00,,2013-03-15 04:23:00,
2013-03-15 00:33:00,31.0,7.0,29.96,WNW,288,0.0,5.0,35,0.00,,,0.00,,2013-03-15 04:33:00,
2013-03-15 00:43:00,31.0,7.0,29.96,WNW,288,0.0,5.0,35,0.00,,,0.00,,2013-03-15 04:43:00,
2013-03-15 00:52:00,30.0,6.0,29.96,North,355,2.0,7.0,36,0.00,,,0.00,,2013-03-15 04:52:00,
2013-03-15 01:02:00,30.0,8.0,29.96,NNW,348,6.0,13.0,38,0.00,,,0.00,,2013-03-15 05:02:00,
2013-03-15 01:12:00,30.0,8.0,29.96,NNW,348,6.0,13.0,38,0.00,,,0.00,,2013-03-15 05:12:00,
2013-03-15 01:23:00,30.0,8.0,29.96,NW,326,6.0,12.0,38,0.00,,,0.00,,2013-03-15 05:23:00,
2013-03-15 01:32:00,30.0,8.0,29.96,NNW,340,6.0,20.0,39,0.00,,,0.00,,2013-03-15 05:32:00,
2013-03-15 01:42:00,30.0,8.0,29.96,NNW,340,6.0,20.0,39,0.00,,,0.00,,2013-03-15 05:42:00,
2013-03-15 01:52:00,30.0,9.0,29.96,NNW,327,7.0,17.0,40,0.00,,,0.00,,2013-03-15 05:52:00,
2013-03-15 02:02:00,30.0,9.0,29.96,NNW,338,9.0,17.0,41,0.00,,,0.00,,2013-03-15 06:02:00,
2013-03-15 02:12:00,30.0,9.0,29.96,NNW,338,9.0,17.0,41,0.00,,,0.00,,2013-03-15 06:12:00,
2013-03-15 02:22:00,30.0,8.0,29.96,NNW,333,7.0,20.0,39,0.00,,,0.00,,2013-03-15 06:22:00,
2013-03-15 02:32:00,30.0,9.0,29.97,NNW,340,10.0,19.0,40,0.00,,,0.00,,2013-03-15 06:32:00,
2013-03-15 02:42:00,30.0,9.0,29.97,NNW,340,10.0,19.0,40,0.00,,,0.00,,2013-03-15 06:42:00,
2013-03-15 02:52:00,30.0,9.0,29.97,North,352,8.0,16.0,41,0.00,,,0.00,,2013-03-15 06:52:00,
2013-03-15 03:02:00,30.0,10.0,29.98,NW,323,6.0,15.0,43,0.00,,,0.00,,2013-03-15 07:02:00,
2013-03-15 03:12:00,30.0,10.0,29.98,NW,323,6.0,15.0,43,0.00,,,0.00,,2013-03-15 07:12:00,
2013-03-15 03:22:00,30.0,10.0,29.97,North,352,7.0,17.0,43,0.00,,,0.00,,2013-03-15 07:22:00,
2013-03-15 03:32:00,29.0,10.0,29.96,NNW,340,7.0,16.0,44,0.00,,,0.00,,2013-03-15 07:32:00,
2013-03-15 03:42:00,29.0,10.0,29.96,NNW,340,7.0,16.0,44,0.00,,,0.00,,2013-03-15 07:42:00,
2013-03-15 03:52:00,29.0,10.0,29.96,North,11,6.0,16.0,45,0.00,,,0.00,,2013-03-15 07:52:00,
2013-03-15 04:02:00,29.0,10.0,29.96,NNE,21,10.0,19.0,45,0.00,,,0.00,,2013-03-15 08:02:00,
2013-03-15 04:12:00,29.0,10.0,29.96,NNE,21,10.0,19.0,45,0.00,,,0.00,,2013-03-15 08:12:00,
2013-03-15 04:23:00,29.0,11.0,29.96,NE,36,5.0,17.0,46,0.00,,,0.00,,2013-03-15 08:23:00,
2013-03-15 04:33:00,29.0,11.0,29.95,NW,309,7.0,18.0,46,0.00,,,0.00,,2013-03-15 08:33:00,
2013-03-15 04:42:00,29.0,11.0,29.95,NW,309,7.0,18.0,46,0.00,,,0.00,,2013-03-15 08:42:00,
2013-03-15 04:52:00,29.0,11.0,29.95,NNW,335,3.0,12.0,47,0.00,,,0.00,,2013-03-15 08:52:00,
2013-03-15 05:02:00,29.0,11.0,29.96,NNW,332,9.0,17.0,47,0.00,,,0.00,,2013-03-15 09:02:00,
2013-03-15 05:12:00,29.0,11.0,29.96,NNW,332,9.0,17.0,47,0.00,,,0.00,,2013-03-15 09:12:00,
2013-03-15 05:22:00,28.0,11.0,29.95,NNW,347,4.0,15.0,48,0.00,,,0.00,,2013-03-15 09:22:00,
2013-03-15 05:33:00,28.0,11.0,29.95,NNW,347,4.0,15.0,48,0.00,,,0.00,,2013-03-15 09:33:00,
2013-03-15 05:43:00,28.0,11.0,29.95,NNW,347,4.0,15.0,48,0.00,,,0.00,,2013-03-15 09:43:00,
2013-03-15 05:53:00,28.0,11.0,29.96,WNW,302,4.0,12.0,49,0.00,,,0.00,,2013-03-15 09:53:00,
2013-03-15 06:03:00,28.0,12.0,29.96,NNW,340,4.0,11.0,50,0.00,,,0.00,,2013-03-15 10:03:00,
2013-03-15 06:13:00,28.0,12.0,29.96,NNW,340,4.0,11.0,50,0.00,,,0.00,,2013-03-15 10:13:00,
2013-03-15 06:23:00,28.0,12.0,29.96,NNW,344,3.0,10.0,50,0.00,,,0.00,,2013-03-15 10:23:00,
2013-03-15 06:33:00,28.0,12.0,29.96,NNW,338,7.0,13.0,50,0.00,,,0.00,,2013-03-15 10:33:00,
2013-03-15 06:43:00,28.0,12.0,29.96,NNW,338,7.0,13.0,50,0.00,,,0.00,,2013-03-15 10:43:00,
2013-03-15 06:52:00,28.0,12.0,29.96,NNE,15,2.0,7.0,51,0.00,,,0.00,,2013-03-15 10:52:00,
2013-03-15 07:03:00,28.0,13.0,29.96,NW,304,3.0,12.0,53,0.00,,,0.00,,2013-03-15 11:03:00,
2013-03-15 07:12:00,28.0,13.0,29.96,NW,304,3.0,12.0,53,0.00,,,0.00,,2013-03-15 11:12:00,
2013-03-15 07:23:00,28.0,12.0,29.96,West,277,5.0,14.0,51,0.00,,,0.00,,2013-03-15 11:23:00,
2013-03-15 07:32:00,28.0,14.0,29.96,NW,306,6.0,9.0,54,0.00,,,0.00,,2013-03-15 11:32:00,
2013-03-15 07:42:00,28.0,14.0,29.96,NW,306,6.0,9.0,54,0.00,,,0.00,,2013-03-15 11:42:00,
2013-03-15 07:52:00,28.0,13.0,29.96,NW,305,2.0,6.0,53,0.00,,,0.00,,2013-03-15 11:52:00,
2013-03-15 08:02:00,28.0,13.0,29.97,NNW,327,3.0,8.0,53,0.00,,,0.00,,2013-03-15 12:02:00,
2013-03-15 08:12:00,28.0,13.0,29.97,NNW,327,3.0,8.0,53,0.00,,,0.00,,2013-03-15 12:12:00,
2013-03-15 08:23:00,28.0,13.0,29.96,NW,317,5.0,12.0,53,0.00,,,0.00,,2013-03-15 12:23:00,
2013-03-15 08:32:00,28.0,14.0,29.96,WNW,288,5.0,10.0,55,0.00,,,0.00,,2013-03-15 12:32:00,
2013-03-15 08:42:00,28.0,14.0,29.96,WNW,288,5.0,10.0,55,0.00,,,0.00,,2013-03-15 12:42:00,
2013-03-15 08:52:00,29.0,13.0,29.96,WNW,297,5.0,10.0,51,0.00,,,0.00,,2013-03-15 12:52:00,
2013-03-15 09:02:00,29.0,13.0,29.96,West,260,2.0,10.0,51,0.00,,,0.00,,2013-03-15 13:02:00,
2013-03-15 09:12:00,29.0,13.0,29.96,West,260,2.0,10.0,51,0.00,,,0.00,,2013-03-15 13:12:00,
2013-03-15 09:22:00,30.0,13.0,29.96,WNW,293,2.0,9.0,49,0.00,,,0.00,,2013-03-15 13:22:00,
2013-03-15 09:32:00,30.0,11.0,29.96,WNW,284,6.0,14.0,45,0.00,,,0.00,,2013-03-15 13:32:00,
2013-03-15 09:42:00,30.0,11.0,29.96,WNW,284,6.0,14.0,45,0.00,,,0.00,,2013-03-15 13:42:00,
2013-03-15 09:52:00,30.0,11.0,29.95,West,279,5.0,13.0,45,0.00,,,0.00,,2013-03-15 13:52:00,
2013-03-15 10:02:00,31.0,11.0,29.95,WNW,292,8.0,14.0,43,0.00,,,0.00,,2013-03-15 14:02:00,
2013-03-15 10:12:00,31.0,11.0,29.95,WNW,292,8.0,14.0,43,0.00,,,0.00,,2013-03-15 14:12:00,
2013-03-15 10:22:00,32.0,12.0,29.94,NNW,328,4.0,12.0,43,0.00,,,0.00,,2013-03-15 14:22:00,
2013-03-15 10:33:00,32.0,12.0,29.93,WNW,290,1.0,10.0,43,0.00,,,0.00,,2013-03-15 14:33:00,
2013-03-15 10:42:00,32.0,12.0,29.93,WNW,290,1.0,10.0,43,0.00,,,0.00,,2013-03-15 14:42:00,
2013-03-15 10:52:00,33.0,13.0,29.92,NW,313,3.0,8.0,43,0.00,,,0.00,,2013-03-15 14:52:00,
2013-03-15 11:02:00,34.0,13.0,29.91,WSW,251,3.0,10.0,42,0.00,,,0.00,,2013-03-15 15:02:00,
2013-03-15 11:13:00,34.0,13.0,29.91,WSW,251,3.0,10.0,42,0.00,,,0.00,,2013-03-15 15:13:00,
2013-03-15 11:23:00,34.0,13.0,29.91,West,264,5.0,11.0,41,0.00,,,0.00,,2013-03-15 15:23:00,
2013-03-15 11:33:00,35.0,13.0,29.91,WSW,257,3.0,12.0,40,0.00,,,0.00,,2013-03-15 15:33:00,
2013-03-15 11:43:00,35.0,13.0,29.91,WSW,257,3.0,12.0,40,0.00,,,0.00,,2013-03-15 15:43:00,
2013-03-15 11:52:00,36.0,14.0,29.89,NNW,347,6.0,11.0,40,0.00,,,0.00,,2013-03-15 15:52:00,
2013-03-15 12:03:00,37.0,15.0,29.88,WSW,257,5.0,13.0,40,0.00,,,0.00,,2013-03-15 16:03:00,
2013-03-15 12:12:00,37.0,15.0,29.88,WSW,257,5.0,13.0,40,0.00,,,0.00,,2013-03-15 16:12:00,
2013-03-15 12:23:00,37.0,16.0,29.87,WSW,250,6.0,16.0,41,0.00,,,0.00,,2013-03-15 16:23:00,
2013-03-15 12:32:00,37.0,16.0,29.86,SW,227,5.0,13.0,41,0.00,,,0.00,,2013-03-15 16:32:00,
2013-03-15 12:42:00,37.0,16.0,29.86,SW,227,5.0,13.0,41,0.00,,,0.00,,2013-03-15 16:42:00,
2013-03-15 12:52:00,38.0,16.0,29.85,West,271,7.0,16.0,41,0.00,,,0.00,,2013-03-15 16:52:00,
2013-03-15 13:02:00,39.0,18.0,29.84,WSW,246,7.0,16.0,42,0.00,,,0.00,,2013-03-15 17:02:00,
2013-03-15 13:12:00,39.0,18.0,29.84,WSW,246,7.0,16.0,42,0.00,,,0.00,,2013-03-15 17:12:00,
2013-03-15 13:23:00,38.0,17.0,29.83,WSW,252,9.0,16.0,42,0.00,,,0.00,,2013-03-15 17:23:00,
2013-03-15 13:32:00,39.0,18.0,29.83,West,271,6.0,13.0,43,0.00,,,0.00,,2013-03-15 17:32:00,
2013-03-15 13:42:00,39.0,18.0,29.83,West,271,6.0,13.0,43,0.00,,,0.00,,2013-03-15 17:42:00,
2013-03-15 13:52:00,38.0,18.0,29.82,NNE,14,8.0,14.0,44,0.00,,,0.00,,2013-03-15 17:52:00,
2013-03-15 14:03:00,38.0,18.0,29.82,WNW,289,7.0,19.0,44,0.00,,,0.00,,2013-03-15 18:03:00,
2013-03-15 14:12:00,38.0,18.0,29.82,WNW,289,7.0,19.0,44,0.00,,,0.00,,2013-03-15 18:12:00,
2013-03-15 14:22:00,38.0,19.0,29.81,WNW,290,7.0,11.0,45,0.00,,,0.00,,2013-03-15 18:22:00,
2013-03-15 14:32:00,38.0,20.0,29.80,SW,218,6.0,16.0,47,0.00,,,0.00,,2013-03-15 18:32:00,
2013-03-15 14:42:00,38.0,20.0,29.80,SW,218,6.0,16.0,47,0.00,,,0.00,,2013-03-15 18:42:00,
2013-03-15 14:52:00,38.0,20.0,29.79,WSW,250,8.0,16.0,48,0.00,,,0.00,,2013-03-15 18:52:00,
2013-03-15 15:02:00,38.0,21.0,29.78,West,281,8.0,17.0,50,0.00,,,0.00,,2013-03-15 19:02:00,
2013-03-15 15:12:00,38.0,21.0,29.78,West,281,8.0,17.0,50,0.00,,,0.00,,2013-03-15 19:12:00,
2013-03-15 15:23:00,39.0,22.0,29.78,SSW,207,7.0,17.0,50,0.00,,,0.00,,2013-03-15 19:23:00,
2013-03-15 15:32:00,40.0,22.0,29.76,WSW,258,5.0,11.0,49,0.00,,,0.00,,2013-03-15 19:32:00,
2013-03-15 15:42:00,40.0,22.0,29.76,WSW,258,5.0,11.0,49,0.00,,,0.00,,2013-03-15 19:42:00,
2013-03-15 15:52:00,41.0,22.0,29.75,WNW,289,9.0,16.0,47,0.00,,,0.00,,2013-03-15 19:52:00,
2013-03-15 16:03:00,41.0,22.0,29.74,West,262,9.0,19.0,47,0.00,,,0.00,,2013-03-15 20:03:00,
2013-03-15 16:12:00,41.0,22.0,29.74,West,262,9.0,19.0,47,0.00,,,0.00,,2013-03-15 20:12:00,
2013-03-15 16:22:00,41.0,23.0,29.74,West,280,5.0,14.0,48,0.00,,,0.00,,2013-03-15 20:22:00,
2013-03-15 16:32:00,41.0,23.0,29.74,WNW,291,5.0,18.0,49,0.00,,,0.00,,2013-03-15 20:32:00,
2013-03-15 16:42:00,41.0,23.0,29.74,WNW,291,5.0,18.0,49,0.00,,,0.00,,2013-03-15 20:42:00,
2013-03-15 16:52:00,41.0,23.0,29.73,NW,314,2.0,19.0,49,0.00,,,0.00,,2013-03-15 20:52:00,
2013-03-15 17:02:00,41.0,23.0,29.73,SSW,208,5.0,17.0,48,0.00,,,0.00,,2013-03-15 21:02:00,
2013-03-15 17:12:00,41.0,23.0,29.73,SSW,208,5.0,17.0,48,0.00,,,0.00,,2013-03-15 21:12:00,
2013-03-15 17:22:00,42.0,24.0,29.72,WSW,247,5.0,12.0,48,0.00,,,0.00,,2013-03-15 21:22:00,
2013-03-15 17:33:00,42.0,24.0,29.71,WNW,288,5.0,15.0,48,0.00,,,0.00,,2013-03-15 21:33:00,
2013-03-15 17:43:00,42.0,24.0,29.71,WNW,288,5.0,15.0,48,0.00,,,0.00,,2013-03-15 21:43:00,
2013-03-15 17:52:00,43.0,25.0,29.71,WSW,243,4.0,20.0,48,0.00,,,0.00,,2013-03-15 21:52:00,
2013-03-15 18:04:00,43.0,25.0,29.72,WSW,246,5.0,14.0,48,0.00,,,0.00,,2013-03-15 22:04:00,
2013-03-15 18:14:00,43.0,25.0,29.72,WSW,246,5.0,14.0,48,0.00,,,0.00,,2013-03-15 22:14:00,
2013-03-15 18:22:00,43.0,25.0,29.72,WNW,287,6.0,14.0,48,0.00,,,0.00,,2013-03-15 22:22:00,
2013-03-15 18:33:00,43.0,25.0,29.72,West,273,5.0,9.0,49,0.00,,,0.00,,2013-03-15 22:33:00,
2013-03-15 18:42:00,43.0,25.0,29.72,West,273,5.0,9.0,49,0.00,,,0.00,,2013-03-15 22:42:00,
2013-03-15 18:52:00,43.0,26.0,29.72,WNW,285,2.0,10.0,50,0.00,,,0.00,,2013-03-15 22:52:00,
2013-03-15 19:03:00,43.0,25.0,29.72,West,274,4.0,7.0,49,0.00,,,0.00,,2013-03-15 23:03:00,
2013-03-15 19:12:00,43.0,25.0,29.72,West,274,4.0,7.0,49,0.00,,,0.00,,2013-03-15 23:12:00,
2013-03-15 19:22:00,43.0,25.0,29.73,SW,231,3.0,11.0,49,0.00,,,0.00,,2013-03-15 23:22:00,
2013-03-15 19:32:00,44.0,27.0,29.73,West,278,4.0,13.0,50,0.00,,,0.00,,2013-03-15 23:32:00,
2013-03-15 19:42:00,44.0,27.0,29.73,West,278,4.0,13.0,50,0.00,,,0.00,,2013-03-15 23:42:00,
2013-03-15 19:53:00,44.0,27.0,29.73,WNW,294,3.0,13.0,51,0.00,,,0.00,,2013-03-15 23:53:00,
2013-03-15 20:03:00,44.0,28.0,29.73,West,278,4.0,9.0,52,0.00,,,0.00,,2013-03-16 00:03:00,
2013-03-15 20:12:00,44.0,28.0,29.73,West,278,4.0,9.0,52,0.00,,,0.00,,2013-03-16 00:12:00,
2013-03-15 20:22:00,44.0,28.0,29.74,NW,314,4.0,9.0,52,0.00,,,0.00,,2013-03-16 00:22:00,
2013-03-15 20:32:00,44.0,28.0,29.75,WNW,285,5.0,11.0,53,0.00,,,0.00,,2013-03-16 00:32:00,
2013-03-15 20:42:00,44.0,28.0,29.75,WNW,285,5.0,11.0,53,0.00,,,0.00,,2013-03-16 00:42:00,
2013-03-15 20:52:00,44.0,28.0,29.75,West,281,7.0,15.0,53,0.00,,,0.00,,2013-03-16 00:52:00,
2013-03-15 21:03:00,43.0,28.0,29.75,North,354,6.0,15.0,54,0.00,,,0.00,,2013-03-16 01:03:00,
2013-03-15 21:12:00,43.0,28.0,29.75,North,354,6.0,15.0,54,0.00,,,0.00,,2013-03-16 01:12:00,
2013-03-15 21:22:00,43.0,28.0,29.75,NNW,348,6.0,10.0,55,0.00,,,0.00,,2013-03-16 01:22:00,
2013-03-15 21:32:00,42.0,28.0,29.76,NE,35,3.0,11.0,57,0.00,,,0.00,,2013-03-16 01:32:00,
2013-03-15 21:42:00,42.0,28.0,29.76,NE,35,3.0,11.0,57,0.00,,,0.00,,2013-03-16 01:42:00,
2013-03-15 21:52:00,41.0,29.0,29.77,North,351,5.0,14.0,62,0.00,,,0.00,,2013-03-16 01:52:00,
2013-03-15 22:02:00,41.0,29.0,29.77,North,351,5.0,14.0,62,0.00,,,0.00,,2013-03-16 02:02:00,
2013-03-15 22:12:00,41.0,29.0,29.77,North,351,5.0,14.0,62,0.00,,,0.00,,2013-03-16 02:12:00,
2013-03-15 22:23:00,41.0,29.0,29.77,NNW,330,4.0,16.0,61,0.00,,,0.00,,2013-03-16 02:23:00,
2013-03-15 22:33:00,40.0,28.0,29.77,NNE,24,4.0,10.0,61,0.00,,,0.00,,2013-03-16 02:33:00,
2013-03-15 22:43:00,40.0,28.0,29.77,NNE,24,4.0,10.0,61,0.00,,,0.00,,2013-03-16 02:43:00,
2013-03-15 22:52:00,40.0,28.0,29.78,North,357,3.0,9.0,61,0.00,,,0.00,,2013-03-16 02:52:00,
2013-03-15 23:02:00,40.0,28.0,29.78,NNE,30,5.0,11.0,61,0.00,,,0.00,,2013-03-16 03:02:00,
2013-03-15 23:12:00,40.0,28.0,29.78,NNE,30,5.0,11.0,61,0.00,,,0.00,,2013-03-16 03:12:00,
2013-03-15 23:22:00,40.0,27.0,29.78,NW,311,5.0,14.0,60,0.00,,,0.00,,2013-03-16 03:22:00,
2013-03-15 23:33:00,40.0,27.0,29.78,North,9,4.0,15.0,59,0.00,,,0.00,,2013-03-16 03:33:00,
2013-03-15 23:43:00,40.0,27.0,29.78,North,9,4.0,15.0,59,0.00,,,0.00,,2013-03-16 03:43:00,
2013-03-15 23:52:00,39.0,25.0,29.79,North,349,5.0,14.0,58,0.00,,,0.00,,2013-03-16 03:52:00,